25-03-2023, 00:00:02,    217,    2.5,    5.6,   0.00,   0.00,  996.9,   74.7, -999.0
25-03-2023, 00:00:11,    254,    0.3,    5.5,   0.00,   0.00,  996.9,   74.7, -999.0
25-03-2023, 00:00:22,    254,    1.7,    5.4,   0.00,   0.00,  996.9,   74.9, -999.0
25-03-2023, 00:00:32,    264,    1.3,    5.5,   0.00,   0.00,  996.9,   74.9, -999.0
25-03-2023, 00:00:42,    223,    0.9,    5.5,   0.00,   0.00,  996.9,   75.0, -999.0
25-03-2023, 00:00:52,    202,    0.3,    5.4,   0.00,   0.00,  996.8,   74.8, -999.0
25-03-2023, 00:01:02,    214,    0.9,    5.4,   0.00,   0.00,  996.9,   74.9, -999.0
25-03-2023, 00:01:12,    161,    0.5,    5.4,   0.00,   0.00,  996.9,   75.0, -999.0
25-03-2023, 00:01:21,    160,    0.0,    5.4,   0.00,   0.00,  996.8,   74.7, -999.0
25-03-2023, 00:01:32,    160,    0.0,    5.4,   0.00,   0.00,  996.8,   74.7, -999.0
25-03-2023, 00:01:42,    223,    0.6,    5.4,   0.00,   0.00,  996.9,   74.9, -999.0
25-03-2023, 00:01:51,    200,    1.7,    5.4,   0.00,   0.00,  996.9,   75.1, -999.0
25-03-2023, 00:02:01,    185,    2.4,    5.5,   0.00,   0.00,  996.9,   75.1, -999.0
25-03-2023, 00:02:12,    223,    4.3,    5.6,   0.00,   0.00,  996.9,   75.2, -999.0
25-03-2023, 00:02:22,    236,    4.5,    5.5,   0.00,   0.00,  996.9,   75.1, -999.0
25-03-2023, 00:02:31,    248,    4.6,    5.4,   0.00,   0.00,  996.9,   75.0, -999.0
25-03-2023, 00:02:41,    223,    3.1,    5.5,   0.00,   0.00,  996.9,   75.0, -999.0
25-03-2023, 00:02:52,    244,    1.5,    5.5,   0.00,   0.00,  996.9,   75.1, -999.0
25-03-2023, 00:03:01,    249,    2.8,    5.5,   0.00,   0.00,  996.9,   75.2, -999.0
25-03-2023, 00:03:11,    181,    1.3,    5.5,   0.00,   0.00,  996.9,   75.3, -999.0
25-03-2023, 00:03:21,    191,    0.5,    5.4,   0.00,   0.00,  996.8,   75.3, -999.0
25-03-2023, 00:03:32,    231,    3.1,    5.5,   0.00,   0.00,  996.8,   75.3, -999.0
25-03-2023, 00:03:41,    261,    5.7,    5.5,   0.00,   0.00,  996.9,   75.2, -999.0
25-03-2023, 00:03:51,    238,    3.2,    5.5,   0.00,   0.00,  996.9,   75.2, -999.0
25-03-2023, 00:04:02,    174,    0.9,    5.5,   0.00,   0.00,  996.9,   75.2, -999.0
25-03-2023, 00:04:11,    222,    1.3,    5.5,   0.00,   0.00,  996.8,   75.2, -999.0
25-03-2023, 00:04:21,    180,    0.9,    5.5,   0.00,   0.00,  996.9,   75.2, -999.0
25-03-2023, 00:04:31,    211,    2.7,    5.6,   0.00,   0.00,  996.9,   75.2, -999.0
25-03-2023, 00:04:41,    251,    3.1,    5.5,   0.00,   0.00,  996.9,   75.2, -999.0
25-03-2023, 00:04:51,    179,    2.5,    5.5,   0.00,   0.00,  996.9,   75.2, -999.0
25-03-2023, 00:05:01,    240,    4.9,    5.5,   0.00,   0.00,  996.8,   75.1, -999.0
25-03-2023, 00:05:11,    212,    4.7,    5.5,   0.00,   0.00,  996.9,   75.1, -999.0
25-03-2023, 00:05:21,    262,    3.7,    5.6,   0.00,   0.00,  996.9,   75.1, -999.0
25-03-2023, 00:05:31,    244,    1.9,    5.6,   0.00,   0.00,  996.9,   75.0, -999.0
25-03-2023, 00:05:41,    224,    5.7,    5.6,   0.00,   0.00,  996.9,   75.0, -999.0
25-03-2023, 00:05:51,    227,    4.9,    5.6,   0.00,   0.00,  996.9,   74.9, -999.0
25-03-2023, 00:06:01,    227,    5.0,    5.6,   0.00,   0.00,  996.9,   74.9, -999.0
25-03-2023, 00:06:11,    209,    2.3,    5.6,   0.00,   0.00,  996.9,   74.8, -999.0
25-03-2023, 00:06:21,    180,    1.0,    5.6,   0.00,   0.00,  996.9,   75.1, -999.0
25-03-2023, 00:06:31,    199,    0.5,    5.5,   0.00,   0.00,  996.9,   74.9, -999.0
25-03-2023, 00:06:41,    242,    2.6,    5.6,   0.00,   0.00,  996.9,   75.0, -999.0
25-03-2023, 00:06:51,    221,    0.5,    5.5,   0.00,   0.00,  996.9,   75.1, -999.0
25-03-2023, 00:07:01,    211,    0.8,    5.6,   0.00,   0.00,  996.9,   75.2, -999.0
25-03-2023, 00:07:11,    209,    0.3,    5.5,   0.00,   0.00,  996.8,   75.0, -999.0
25-03-2023, 00:07:21,    182,    1.0,    5.5,   0.00,   0.00,  996.8,   75.0, -999.0
25-03-2023, 00:07:31,    260,    1.0,    5.4,   0.00,   0.00,  996.9,   75.2, -999.0
25-03-2023, 00:07:41,    196,    1.8,    5.4,   0.00,   0.00,  996.9,   75.4, -999.0
25-03-2023, 00:07:51,    192,    3.1,    5.5,   0.00,   0.00,  996.9,   75.4, -999.0
25-03-2023, 00:08:01,    205,    3.4,    5.5,   0.00,   0.00,  996.9,   75.6, -999.0
25-03-2023, 00:08:11,    213,    2.2,    5.5,   0.00,   0.00,  996.9,   75.5, -999.0
25-03-2023, 00:08:21,    188,    0.8,    5.5,   0.00,   0.00,  996.9,   75.5, -999.0
25-03-2023, 00:08:31,    222,    4.0,    5.5,   0.00,   0.00,  996.9,   75.5, -999.0
25-03-2023, 00:08:41,    207,    2.6,    5.6,   0.00,   0.00,  996.9,   75.4, -999.0
25-03-2023, 00:08:51,    239,    2.1,    5.6,   0.00,   0.00,  996.9,   75.5, -999.0
25-03-2023, 00:09:01,    211,    2.0,    5.5,   0.00,   0.00,  996.9,   75.6, -999.0
25-03-2023, 00:09:11,    236,    3.4,    5.6,   0.00,   0.00,  997.0,   75.4, -999.0
25-03-2023, 00:09:21,    241,    4.9,    5.5,   0.00,   0.00,  996.9,   75.4, -999.0
25-03-2023, 00:09:31,    219,    4.7,    5.5,   0.00,   0.00,  997.0,   75.4, -999.0
25-03-2023, 00:09:41,    229,    6.5,    5.6,   0.00,   0.00,  996.9,   75.4, -999.0
25-03-2023, 00:09:51,    263,    4.8,    5.5,   0.00,   0.00,  996.9,   75.5, -999.0
25-03-2023, 00:10:01,    253,    2.5,    5.6,   0.00,   0.00,  996.9,   75.4, -999.0
25-03-2023, 00:10:10,    156,    3.0,    5.5,   0.00,   0.00,  996.9,   75.3, -999.0
25-03-2023, 00:10:21,    215,    1.2,    5.5,   0.00,   0.00,  996.9,   75.5, -999.0
25-03-2023, 00:10:31,    214,    1.2,    5.4,   0.00,   0.00,  996.9,   75.5, -999.0
25-03-2023, 00:10:41,    180,    0.0,    5.4,   0.00,   0.00,  996.8,   75.2, -999.0
25-03-2023, 00:10:50,    242,    0.5,    5.5,   0.00,   0.00,  996.9,   75.4, -999.0
25-03-2023, 00:11:01,    227,    1.4,    5.5,   0.00,   0.00,  996.9,   75.5, -999.0
25-03-2023, 00:11:11,    232,    0.6,    5.5,   0.00,   0.00,  996.9,   75.6, -999.0
25-03-2023, 00:11:20,    229,    2.7,    5.5,   0.00,   0.00,  996.9,   75.7, -999.0
25-03-2023, 00:11:30,    248,    2.1,    5.5,   0.00,   0.00,  996.9,   75.7, -999.0
25-03-2023, 00:11:41,    229,    3.4,    5.6,   0.00,   0.00,  996.9,   75.7, -999.0
25-03-2023, 00:11:50,    235,    2.1,    5.4,   0.00,   0.00,  997.0,   75.6, -999.0
25-03-2023, 00:12:00,    223,    4.9,    5.6,   0.00,   0.00,  997.0,   75.7, -999.0
25-03-2023, 00:12:11,    212,    1.2,    5.5,   0.00,   0.00,  997.0,   75.8, -999.0
25-03-2023, 00:12:21,    225,    1.4,    5.4,   0.00,   0.00,  996.9,   75.9, -999.0
25-03-2023, 00:12:30,    187,    2.4,    5.6,   0.00,   0.00,  996.9,   76.0, -999.0
25-03-2023, 00:12:40,    171,    2.9,    5.6,   0.00,   0.00,  997.0,   75.9, -999.0
25-03-2023, 00:12:51,    173,    3.3,    5.6,   0.00,   0.00,  996.9,   76.0, -999.0
25-03-2023, 00:13:00,    194,    1.8,    5.6,   0.00,   0.00,  996.9,   75.7, -999.0
25-03-2023, 00:13:10,    232,    1.1,    5.5,   0.00,   0.00,  997.0,   75.5, -999.0
25-03-2023, 00:13:20,    228,    4.4,    5.6,   0.00,   0.00,  997.0,   75.6, -999.0
25-03-2023, 00:13:30,    246,    3.0,    5.6,   0.00,   0.00,  997.0,   75.6, -999.0
25-03-2023, 00:13:40,    250,    6.3,    5.5,   0.00,   0.00,  997.0,   75.5, -999.0
25-03-2023, 00:13:50,    221,    4.5,    5.5,   0.00,   0.00,  996.9,   75.3, -999.0
25-03-2023, 00:14:00,    270,    6.0,    5.6,   0.00,   0.00,  996.9,   75.4, -999.0
25-03-2023, 00:14:10,    238,    4.9,    5.6,   0.00,   0.00,  996.9,   75.2, -999.0
25-03-2023, 00:14:20,    227,    3.2,    5.6,   0.00,   0.00,  997.0,   75.2, -999.0
25-03-2023, 00:14:30,    235,    5.4,    5.6,   0.00,   0.00,  997.0,   75.2, -999.0
25-03-2023, 00:14:40,    219,    5.2,    5.6,   0.00,   0.00,  996.9,   75.2, -999.0
25-03-2023, 00:14:50,    207,    3.2,    5.6,   0.00,   0.00,  996.9,   75.1, -999.0
25-03-2023, 00:15:00,    242,    3.8,    5.6,   0.00,   0.00,  996.9,   75.1, -999.0
25-03-2023, 00:15:10,    201,    3.1,    5.6,   0.00,   0.00,  996.9,   75.2, -999.0
25-03-2023, 00:15:20,    166,    1.3,    5.6,   0.00,   0.00,  996.9,   75.4, -999.0
25-03-2023, 00:15:30,    166,    0.6,    5.6,   0.00,   0.00,  996.9,   75.5, -999.0
25-03-2023, 00:15:40,    167,    0.0,    5.6,   0.00,   0.00,  996.8,   75.2, -999.0
25-03-2023, 00:15:50,    223,    1.1,    5.6,   0.00,   0.00,  996.9,   75.6, -999.0
25-03-2023, 00:16:00,    223,    0.6,    5.6,   0.00,   0.00,  996.9,   75.8, -999.0
25-03-2023, 00:16:10,    222,    1.2,    5.6,   0.00,   0.00,  996.9,   75.9, -999.0
25-03-2023, 00:16:20,    222,    0.6,    5.5,   0.00,   0.00,  996.9,   75.7, -999.0
25-03-2023, 00:16:30,    220,    0.6,    5.5,   0.00,   0.00,  996.9,   76.0, -999.0
25-03-2023, 00:16:40,    247,    2.9,    5.6,   0.00,   0.00,  996.9,   76.0, -999.0
25-03-2023, 00:16:50,    195,    4.4,    5.6,   0.00,   0.00,  996.9,   76.0, -999.0
25-03-2023, 00:17:00,    186,    1.2,    5.6,   0.00,   0.00,  996.9,   76.0, -999.0
25-03-2023, 00:17:10,    104,    0.4,    5.6,   0.00,   0.00,  996.9,   75.8, -999.0
25-03-2023, 00:17:20,    233,    1.2,    5.6,   0.00,   0.00,  996.9,   75.7, -999.0
25-03-2023, 00:17:30,    188,    3.9,    5.7,   0.00,   0.00,  996.9,   75.7, -999.0
25-03-2023, 00:17:40,    197,    4.9,    5.6,   0.00,   0.00,  996.9,   75.7, -999.0
25-03-2023, 00:17:50,    161,    3.0,    5.6,   0.00,   0.00,  996.9,   75.4, -999.0
25-03-2023, 00:18:00,    170,    0.4,    5.6,   0.00,   0.00,  996.9,   75.3, -999.0
25-03-2023, 00:18:10,    166,    3.7,    5.7,   0.00,   0.00,  996.9,   75.4, -999.0
25-03-2023, 00:18:20,    231,    2.1,    5.7,   0.00,   0.00,  996.9,   75.3, -999.0
25-03-2023, 00:18:30,    239,    1.5,    5.6,   0.00,   0.00,  996.9,   75.3, -999.0
25-03-2023, 00:18:40,    215,    1.3,    5.6,   0.00,   0.00,  996.9,   75.2, -999.0
25-03-2023, 00:18:50,    200,    1.4,    5.7,   0.00,   0.00,  996.9,   75.3, -999.0
25-03-2023, 00:19:00,    208,    0.6,    5.7,   0.00,   0.00,  996.9,   75.4, -999.0
25-03-2023, 00:19:10,    209,    0.0,    5.6,   0.00,   0.00,  996.8,   75.1, -999.0
25-03-2023, 00:19:20,    215,    0.0,    5.6,   0.00,   0.00,  996.9,   75.1, -999.0
25-03-2023, 00:19:30,    216,    0.1,    5.6,   0.00,   0.00,  996.9,   75.2, -999.0
25-03-2023, 00:19:39,    240,    0.5,    5.5,   0.00,   0.00,  996.9,   75.2, -999.0
25-03-2023, 00:19:50,    215,    3.6,    5.7,   0.00,   0.00,  996.9,   75.6, -999.0
25-03-2023, 00:20:00,    259,    2.1,    5.7,   0.00,   0.00,  997.0,   75.4, -999.0
25-03-2023, 00:20:09,    216,    1.5,    5.7,   0.00,   0.00,  997.0,   75.5, -999.0
25-03-2023, 00:20:19,    206,    5.5,    5.7,   0.00,   0.00,  997.0,   75.6, -999.0
25-03-2023, 00:20:30,    223,    3.3,    5.6,   0.00,   0.00,  997.1,   75.4, -999.0
25-03-2023, 00:20:40,    228,    1.3,    5.6,   0.00,   0.00,  997.1,   75.3, -999.0
25-03-2023, 00:20:49,    260,    0.4,    5.6,   0.00,   0.00,  997.0,   75.3, -999.0
25-03-2023, 00:21:00,    214,    2.8,    5.7,   0.00,   0.00,  997.0,   75.5, -999.0
25-03-2023, 00:21:10,    197,    1.0,    5.7,   0.00,   0.00,  997.0,   75.6, -999.0
25-03-2023, 00:21:19,    232,    4.5,    5.7,   0.00,   0.00,  997.0,   75.6, -999.0
25-03-2023, 00:21:29,    198,    6.0,    5.8,   0.00,   0.00,  997.0,   75.6, -999.0
25-03-2023, 00:21:40,    199,    3.9,    5.6,   0.00,   0.00,  997.1,   75.6, -999.0
25-03-2023, 00:21:49,    200,    2.5,    5.7,   0.00,   0.00,  997.1,   75.6, -999.0
25-03-2023, 00:21:59,    195,    0.2,    5.5,   0.00,   0.00,  997.0,   75.5, -999.0
25-03-2023, 00:22:09,    255,    0.3,    5.6,   0.00,   0.00,  997.0,   75.5, -999.0
25-03-2023, 00:22:20,    237,    2.7,    5.6,   0.00,   0.00,  997.2,   75.9, -999.0
25-03-2023, 00:22:29,    209,    2.8,    5.6,   0.00,   0.00,  997.0,   75.8, -999.0
25-03-2023, 00:22:39,    200,    2.2,    5.7,   0.00,   0.00,  997.0,   75.4, -999.0
25-03-2023, 00:22:49,    263,    3.2,    5.8,   0.00,   0.00,  997.1,   75.7, -999.0
25-03-2023, 00:22:59,    192,    2.0,    5.6,   0.00,   0.00,  997.0,   75.6, -999.0
25-03-2023, 00:23:09,    214,    4.0,    5.7,   0.00,   0.00,  997.1,   75.7, -999.0
25-03-2023, 00:23:19,    261,    3.4,    5.7,   0.00,   0.00,  997.0,   75.8, -999.0
25-03-2023, 00:23:29,    173,    1.3,    5.7,   0.00,   0.00,  997.0,   76.0, -999.0
25-03-2023, 00:23:39,    230,    2.7,    5.6,   0.00,   0.00,  997.1,   76.0, -999.0
25-03-2023, 00:23:49,    227,    3.4,    5.6,   0.00,   0.00,  997.0,   76.0, -999.0
25-03-2023, 00:24:00,    216,    1.1,    5.7,   0.00,   0.00,  997.1,   76.0, -999.0
25-03-2023, 00:24:09,    209,    2.4,    5.7,   0.00,   0.00,  997.1,   76.0, -999.0
25-03-2023, 00:24:19,    217,    3.5,    5.6,   0.00,   0.00,  997.1,   76.1, -999.0
25-03-2023, 00:24:29,    295,    6.2,    5.8,   0.00,   0.00,  997.0,   76.1, -999.0
25-03-2023, 00:24:39,    271,    4.4,    5.7,   0.00,   0.00,  997.0,   76.0, -999.0
25-03-2023, 00:24:49,    244,    3.9,    5.7,   0.00,   0.00,  997.1,   76.1, -999.0
25-03-2023, 00:24:59,    235,    4.5,    5.7,   0.00,   0.00,  997.1,   76.1, -999.0
25-03-2023, 00:25:09,    259,    3.0,    5.7,   0.00,   0.00,  997.0,   76.0, -999.0
25-03-2023, 00:25:19,    266,    4.1,    5.7,   0.00,   0.00,  997.0,   76.1, -999.0
25-03-2023, 00:25:29,    237,    2.8,    5.7,   0.00,   0.00,  997.1,   76.1, -999.0
25-03-2023, 00:25:39,    189,    3.3,    5.7,   0.00,   0.00,  997.1,   76.2, -999.0
25-03-2023, 00:25:49,    225,    2.6,    5.7,   0.00,   0.00,  997.1,   76.2, -999.0
25-03-2023, 00:25:59,    174,    1.1,    5.7,   0.00,   0.00,  997.1,   76.3, -999.0
25-03-2023, 00:26:09,    242,    3.1,    5.7,   0.00,   0.00,  997.1,   76.3, -999.0
25-03-2023, 00:26:19,    293,    1.2,    5.7,   0.00,   0.00,  997.1,   76.3, -999.0
25-03-2023, 00:26:29,    198,    1.0,    5.7,   0.00,   0.00,  997.0,   76.2, -999.0
25-03-2023, 00:26:39,    189,    1.7,    5.7,   0.00,   0.00,  997.1,   76.3, -999.0
25-03-2023, 00:26:49,    199,    2.5,    5.8,   0.00,   0.00,  997.1,   76.3, -999.0
25-03-2023, 00:26:59,    223,    0.9,    5.7,   0.00,   0.00,  997.0,   76.4, -999.0
25-03-2023, 00:27:09,    237,    2.7,    5.8,   0.00,   0.00,  997.1,   76.5, -999.0
25-03-2023, 00:27:19,    249,    4.3,    5.8,   0.00,   0.00,  997.1,   76.5, -999.0
25-03-2023, 00:27:29,    231,    3.5,    5.8,   0.00,   0.00,  997.1,   76.5, -999.0
25-03-2023, 00:27:39,    235,    4.3,    5.8,   0.00,   0.00,  997.1,   76.5, -999.0
25-03-2023, 00:27:49,    197,    3.4,    5.8,   0.00,   0.00,  997.1,   76.6, -999.0
25-03-2023, 00:27:59,    269,    0.5,    5.7,   0.00,   0.00,  997.1,   76.6, -999.0
25-03-2023, 00:28:09,    268,    0.0,    5.7,   0.00,   0.00,  997.0,   76.7, -999.0
25-03-2023, 00:28:19,    180,    1.1,    5.6,   0.00,   0.00,  997.0,   76.9, -999.0
25-03-2023, 00:28:29,    242,    1.4,    5.7,   0.00,   0.00,  997.1,   77.1, -999.0
25-03-2023, 00:28:39,    224,    0.7,    5.7,   0.00,   0.00,  997.1,   77.1, -999.0
25-03-2023, 00:28:49,    201,    3.5,    5.6,   0.00,   0.00,  997.1,   77.2, -999.0
25-03-2023, 00:28:59,    212,    2.4,    5.6,   0.00,   0.00,  997.1,   77.1, -999.0
25-03-2023, 00:29:08,    178,    1.5,    5.7,   0.00,   0.00,  997.0,   77.2, -999.0
25-03-2023, 00:29:19,    270,    1.9,    5.7,   0.00,   0.00,  997.1,   77.4, -999.0
25-03-2023, 00:29:29,    278,    2.3,    5.6,   0.00,   0.00,  997.1,   77.4, -999.0
25-03-2023, 00:29:38,    282,    1.6,    5.6,   0.00,   0.00,  997.0,   77.4, -999.0
25-03-2023, 00:29:49,    266,    1.1,    5.7,   0.00,   0.00,  997.1,   77.6, -999.0
25-03-2023, 00:29:59,    159,    2.0,    5.7,   0.00,   0.00,  997.0,   77.7, -999.0
25-03-2023, 00:30:08,    212,    2.5,    5.7,   0.00,   0.00,  997.0,   77.6, -999.0
25-03-2023, 00:30:18,    223,    1.6,    5.6,   0.00,   0.00,  997.1,   77.7, -999.0
25-03-2023, 00:30:29,    185,    2.1,    5.7,   0.00,   0.00,  997.1,   77.7, -999.0
25-03-2023, 00:30:39,    185,    0.5,    5.6,   0.00,   0.00,  997.0,   77.5, -999.0
25-03-2023, 00:30:48,    210,    2.9,    5.6,   0.00,   0.00,  997.0,   77.7, -999.0
25-03-2023, 00:30:58,    234,    4.6,    5.7,   0.00,   0.00,  997.1,   77.6, -999.0
25-03-2023, 00:31:09,    247,    2.8,    5.7,   0.00,   0.00,  997.1,   77.5, -999.0
25-03-2023, 00:31:18,    248,    1.2,    5.7,   0.00,   0.00,  997.1,   77.4, -999.0
25-03-2023, 00:31:28,    243,    2.9,    5.8,   0.00,   0.00,  997.1,   77.4, -999.0
25-03-2023, 00:31:38,    192,    1.3,    5.7,   0.00,   0.00,  997.0,   77.5, -999.0
25-03-2023, 00:31:48,    161,    1.4,    5.7,   0.00,   0.00,  997.1,   77.5, -999.0
25-03-2023, 00:31:58,    201,    2.3,    5.6,   0.00,   0.00,  997.0,   77.6, -999.0
25-03-2023, 00:32:08,    216,    3.3,    5.7,   0.00,   0.00,  997.1,   77.7, -999.0
25-03-2023, 00:32:18,    210,    0.2,    5.6,   0.00,   0.00,  996.9,   77.2, -999.0
25-03-2023, 00:32:28,    199,    2.3,    5.7,   0.00,   0.00,  997.1,   77.4, -999.0
25-03-2023, 00:32:38,    232,    0.9,    5.8,   0.00,   0.00,  997.0,   77.6, -999.0
25-03-2023, 00:32:48,    197,    0.7,    5.7,   0.00,   0.00,  997.1,   77.6, -999.0
25-03-2023, 00:32:58,    209,    2.3,    5.7,   0.00,   0.00,  997.1,   77.5, -999.0
25-03-2023, 00:33:08,    204,    2.1,    5.7,   0.00,   0.00,  997.1,   77.5, -999.0
25-03-2023, 00:33:18,    224,    6.5,    5.8,   0.00,   0.00,  997.1,   77.4, -999.0
25-03-2023, 00:33:28,    212,    3.6,    5.8,   0.00,   0.00,  997.1,   77.5, -999.0
25-03-2023, 00:33:38,    239,    4.5,    5.7,   0.00,   0.00,  997.1,   77.9, -999.0
25-03-2023, 00:33:48,    234,    5.0,    5.7,   0.00,   0.00,  997.1,   78.0, -999.0
25-03-2023, 00:33:58,    252,    5.5,    5.7,   0.00,   0.00,  997.1,   78.2, -999.0
25-03-2023, 00:34:08,    233,    3.9,    5.7,   0.00,   0.00,  997.1,   78.5, -999.0
25-03-2023, 00:34:18,    233,    1.9,    5.7,   0.00,   0.00,  997.1,   78.8, -999.0
25-03-2023, 00:34:28,    203,    2.8,    5.7,   0.00,   0.00,  997.1,   79.3, -999.0
25-03-2023, 00:34:38,    222,    2.2,    5.7,   0.00,   0.00,  997.1,   79.3, -999.0
25-03-2023, 00:34:48,    235,    2.7,    5.6,   0.00,   0.00,  997.0,   79.4, -999.0
25-03-2023, 00:34:58,    236,    4.0,    5.7,   0.00,   0.00,  997.1,   79.5, -999.0
25-03-2023, 00:35:08,    241,    0.9,    5.7,   0.00,   0.00,  997.0,   79.6, -999.0
25-03-2023, 00:35:18,    231,    0.5,    5.6,   0.00,   0.00,  997.0,   79.6, -999.0
25-03-2023, 00:35:28,    224,    0.7,    5.5,   0.00,   0.00,  997.0,   79.9, -999.0
25-03-2023, 00:35:38,    189,    0.5,    5.6,   0.00,   0.00,  997.1,   80.0, -999.0
25-03-2023, 00:35:48,    261,    1.6,    5.6,   0.00,   0.00,  997.1,   80.3, -999.0
25-03-2023, 00:35:58,    257,    4.4,    5.5,   0.00,   0.00,  997.1,   80.3, -999.0
25-03-2023, 00:36:08,    179,    1.0,    5.6,   0.00,   0.00,  997.1,   80.5, -999.0
25-03-2023, 00:36:18,    150,    1.6,    5.6,   0.00,   0.00,  997.0,   80.6, -999.0
25-03-2023, 00:36:28,    211,    3.4,    5.6,   0.00,   0.00,  997.0,   80.5, -999.0
25-03-2023, 00:36:38,    216,    1.1,    5.6,   0.00,   0.00,  997.1,   80.7, -999.0
25-03-2023, 00:36:48,    211,    4.5,    5.6,   0.00,   0.00,  997.1,   80.8, -999.0
25-03-2023, 00:36:58,    196,    3.4,    5.6,   0.00,   0.00,  997.0,   80.7, -999.0
25-03-2023, 00:37:08,    183,    2.5,    5.6,   0.00,   0.00,  997.0,   80.5, -999.0
25-03-2023, 00:37:17,    197,    4.1,    5.7,   0.00,   0.00,  997.1,   80.5, -999.0
25-03-2023, 00:37:28,    203,    5.4,    5.6,   0.00,   0.00,  997.0,   80.3, -999.0
25-03-2023, 00:37:38,    201,    2.7,    5.7,   0.00,   0.00,  997.0,   80.1, -999.0
25-03-2023, 00:37:48,    279,    1.0,    5.6,   0.00,   0.00,  997.0,   80.1, -999.0
25-03-2023, 00:37:58,    233,    1.6,    5.7,   0.00,   0.00,  997.1,   80.3, -999.0
25-03-2023, 00:38:08,    209,    3.1,    5.7,   0.00,   0.00,  997.1,   80.4, -999.0
25-03-2023, 00:38:18,    205,    3.3,    5.7,   0.00,   0.00,  997.1,   80.3, -999.0
25-03-2023, 00:38:27,    188,    1.7,    5.6,   0.00,   0.00,  997.0,   80.2, -999.0
25-03-2023, 00:38:38,    216,    1.0,    5.7,   0.00,   0.00,  997.0,   80.3, -999.0
25-03-2023, 00:38:48,    188,    2.8,    5.6,   0.00,   0.00,  996.9,   80.2, -999.0
25-03-2023, 00:38:57,    217,    1.8,    5.6,   0.00,   0.00,  997.0,   80.3, -999.0
25-03-2023, 00:39:07,    169,    1.5,    5.6,   0.00,   0.00,  997.0,   80.3, -999.0
25-03-2023, 00:39:18,    211,    3.2,    5.5,   0.00,   0.00,  996.9,   80.5, -999.0
25-03-2023, 00:39:28,    197,    3.5,    5.6,   0.00,   0.00,  997.0,   80.7, -999.0
25-03-2023, 00:39:37,    191,    3.5,    5.6,   0.00,   0.00,  997.0,   80.8, -999.0
25-03-2023, 00:39:47,    188,    1.3,    5.7,   0.00,   0.00,  997.0,   80.8, -999.0
25-03-2023, 00:39:58,    234,    2.9,    5.6,   0.00,   0.00,  997.1,   80.8, -999.0
25-03-2023, 00:40:07,    187,    3.3,    5.7,   0.00,   0.00,  997.0,   80.8, -999.0
25-03-2023, 00:40:17,    184,    4.6,    5.7,   0.00,   0.00,  997.0,   80.6, -999.0
25-03-2023, 00:40:27,    241,    1.2,    5.6,   0.00,   0.00,  997.1,   80.2, -999.0
25-03-2023, 00:40:37,    193,    1.1,    5.6,   0.00,   0.00,  997.1,   80.2, -999.0
25-03-2023, 00:40:47,    205,    0.2,    5.6,   0.00,   0.00,  997.0,   80.1, -999.0
25-03-2023, 00:40:57,    225,    4.0,    5.6,   0.00,   0.00,  997.0,   80.3, -999.0
25-03-2023, 00:41:08,    208,    2.1,    5.7,   0.00,   0.00,  997.1,   80.4, -999.0
25-03-2023, 00:41:17,    190,    1.2,    5.7,   0.00,   0.00,  997.0,   80.3, -999.0
25-03-2023, 00:41:27,    204,    1.1,    5.7,   0.00,   0.00,  997.0,   80.4, -999.0
25-03-2023, 00:41:39,    205,    0.5,    5.6,   0.00,   0.00,  997.0,   80.4, -999.0
25-03-2023, 00:41:47,    159,    2.3,    5.7,   0.00,   0.00,  997.0,   80.6, -999.0
25-03-2023, 00:41:57,    198,    2.1,    5.7,   0.00,   0.00,  997.0,   80.4, -999.0
25-03-2023, 00:42:07,    201,    2.9,    5.6,   0.00,   0.00,  997.1,   80.4, -999.0
25-03-2023, 00:42:17,    213,    4.4,    5.7,   0.00,   0.00,  997.1,   80.5, -999.0
25-03-2023, 00:42:27,    223,    2.0,    5.5,   0.00,   0.00,  997.0,   80.5, -999.0
25-03-2023, 00:42:37,    199,    1.4,    5.7,   0.00,   0.00,  997.1,   80.6, -999.0
25-03-2023, 00:42:47,    171,    2.9,    5.7,   0.00,   0.00,  997.0,   80.6, -999.0
25-03-2023, 00:42:57,    176,    2.8,    5.7,   0.00,   0.00,  997.0,   80.3, -999.0
25-03-2023, 00:43:07,    157,    2.1,    5.7,   0.00,   0.00,  997.0,   80.2, -999.0
25-03-2023, 00:43:17,    202,    1.9,    5.7,   0.00,   0.00,  997.1,   80.3, -999.0
25-03-2023, 00:43:27,    187,    2.9,    5.7,   0.00,   0.00,  997.0,   80.2, -999.0
25-03-2023, 00:43:37,    174,    2.9,    5.8,   0.00,   0.00,  997.0,   80.1, -999.0
25-03-2023, 00:43:47,    214,    2.1,    5.7,   0.00,   0.00,  997.0,   80.1, -999.0
25-03-2023, 00:43:57,    226,    3.5,    5.7,   0.00,   0.00,  997.0,   80.3, -999.0
25-03-2023, 00:44:07,    213,    1.1,    5.7,   0.00,   0.00,  996.9,   80.3, -999.0
25-03-2023, 00:44:17,    188,    0.2,    5.6,   0.00,   0.00,  996.9,   80.2, -999.0
25-03-2023, 00:44:27,    244,    2.5,    5.6,   0.00,   0.00,  997.0,   80.7, -999.0
25-03-2023, 00:44:37,    222,    3.0,    5.6,   0.00,   0.00,  996.9,   80.9, -999.0
25-03-2023, 00:44:47,    213,    3.0,    5.6,   0.00,   0.00,  996.9,   81.1, -999.0
25-03-2023, 00:44:57,    221,    2.6,    5.6,   0.00,   0.00,  996.9,   81.2, -999.0
25-03-2023, 00:45:07,    189,    1.8,    5.6,   0.00,   0.01,  996.9,   81.3, -999.0
25-03-2023, 00:45:17,    178,    1.9,    5.7,   0.00,   0.00,  996.9,   81.5, -999.0
25-03-2023, 00:45:27,    202,    0.8,    5.5,   0.00,   0.00,  997.0,   81.6, -999.0
25-03-2023, 00:45:37,    157,    1.2,    5.6,   0.00,   0.00,  997.1,   81.8, -999.0
25-03-2023, 00:45:47,    180,    2.3,    5.6,   0.00,   0.00,  996.9,   82.0, -999.0
25-03-2023, 00:45:57,    176,    1.0,    5.6,   0.00,   0.00,  996.9,   82.1, -999.0
25-03-2023, 00:46:07,    214,    3.5,    5.6,   0.00,   0.00,  996.9,   82.1, -999.0
25-03-2023, 00:46:17,    298,    2.2,    5.6,   0.00,   0.00,  997.0,   82.0, -999.0
25-03-2023, 00:46:27,    228,    4.7,    5.6,   0.00,   0.00,  997.0,   81.9, -999.0
25-03-2023, 00:46:37,    178,    5.9,    5.6,   0.00,   0.00,  997.0,   81.8, -999.0
25-03-2023, 00:46:46,    213,    1.8,    5.7,   0.00,   0.00,  997.1,   81.9, -999.0